Tucson Davis Monthan, AZ

4:28 AM MST on December 06, 2019 (GMT -0700)
Davis-Monthan Air Force Base

Weather History for KDMA - October, 2019

Change the Weather History Date:

Saturday, October 19, 2019

  Actual Average Record
Temperature  
Mean Temperature 67 °F -  
Max Temperature 82 °F 83 °F 98 °F (1991)
Min Temperature 52 °F 55 °F 40 °F (1971)
Cooling Degree Days 2    
Growing Degree Days 17 (Base 50)    
Moisture  
Dew Point 33 °F    
Average Humidity 31    
Maximum Humidity 51    
Minimum Humidity 14    
Precipitation  
Precipitation 0.00 in - - ()
Sea Level Pressure  
Sea Level Pressure 29.83 in    
Wind  
Wind Speed 6 mph (ESE)    
Max Wind Speed 10 mph    
Max Gust Speed -    
Visibility 10 miles    
Events      
Averages and records for this station are not official NWS values.
T = Trace of Precipitation, MM = Missing Value Source: NWS Daily Summary

Daily Weather History Graph

Daily Weather History Graph

Search for Another Location

Airport or City:

Astronomy

Oct. 19, 2019 Rise Set
Actual Time 6:29 AM MST 5:46 PM MST
Civil Twilight 6:05 AM MST 6:11 PM MST
Nautical Twilight 5:36 AM MST 6:39 PM MST
Astronomical Twilight 5:08 AM MST 7:08 PM MST
Moon 10:12 PM MST (10/19) 11:51 AM MST (10/19)
Length of Visible Light 12h 06m
Length of Day
11h 16m
Waning Gibbous, 68% of the Moon is Illuminated
Oct 19
Waning Gibbous
Oct 21
Last Quarter
Oct 27
New
Nov 4
First Quarter
Nov 12
Full

Hourly Weather History & Observations

Time (MST) Temp. Dew Point Humidity Pressure Visibility Wind Dir Wind Speed Gust Speed Precip Events Conditions
12:58 AM 57.0 °F 35.2 °F 44% 29.84 in 10.0 mi ESE 6.9 mph - N/A   Clear
1:58 AM 56.5 °F 36.0 °F 46% 29.84 in 10.0 mi East 3.5 mph - N/A   Clear
2:58 AM 55.9 °F 36.5 °F 48% 29.84 in 10.0 mi ESE 6.9 mph - N/A   Clear
3:58 AM 54.3 °F 36.5 °F 51% 29.84 in 10.0 mi SE 8.1 mph - N/A   Clear
4:58 AM 54.5 °F 35.8 °F 49% 29.86 in 10.0 mi SE 6.9 mph - N/A   Clear
5:58 AM 54.1 °F 34.9 °F 48% 29.87 in 10.0 mi ESE 10.4 mph - N/A   Clear
6:58 AM 52.9 °F 35.2 °F 51% 29.88 in 10.0 mi SE 8.1 mph - N/A   Clear
7:58 AM 61.0 °F 35.8 °F 39% 29.89 in 10.0 mi SE 5.8 mph - N/A   Clear
8:58 AM 68.2 °F 35.6 °F 30% 29.90 in 10.0 mi SE 4.6 mph - N/A   Clear
9:58 AM 71.8 °F 35.1 °F 26% 29.89 in 10.0 mi Calm Calm - N/A   Clear
10:58 AM 75.2 °F 36.0 °F 24% 29.88 in 10.0 mi Calm Calm - N/A   Clear
11:58 AM 78.8 °F 35.6 °F 21% 29.85 in 10.0 mi West 5.8 mph - N/A   Clear
12:58 PM 79.3 °F 33.4 °F 19% 29.83 in 10.0 mi NW 3.5 mph - N/A   Clear
1:58 PM 81.0 °F 28.9 °F 15% 29.80 in 10.0 mi NNW 3.5 mph - N/A   Clear
2:58 PM 82.0 °F 28.0 °F 14% 29.78 in 10.0 mi NW 5.8 mph - N/A   Clear
3:58 PM 82.6 °F 30.2 °F 15% 29.78 in 10.0 mi NW 9.2 mph - N/A   Clear
4:58 PM 80.8 °F 28.8 °F 15% 29.77 in 10.0 mi NNW 8.1 mph - N/A   Clear
5:58 PM 76.3 °F 29.7 °F 18% 29.76 in 10.0 mi NW 5.8 mph - N/A   Clear
6:58 PM 72.3 °F 30.2 °F 21% 29.79 in 10.0 mi NW 5.8 mph - N/A   Clear
7:58 PM 69.6 °F 30.2 °F 23% 29.80 in 10.0 mi NW 4.6 mph - N/A   Clear
8:58 PM 63.5 °F 30.7 °F 29% 29.79 in 10.0 mi South 6.9 mph - N/A   Clear
9:58 PM 60.8 °F 30.0 °F 31% 29.81 in 10.0 mi SSE 8.1 mph - N/A   Clear
10:58 PM 58.3 °F 30.0 °F 34% 29.81 in 10.0 mi SSE 6.9 mph - N/A   Clear
11:58 PM 56.7 °F 30.0 °F 36% 29.81 in 10.0 mi SE 3.5 mph - N/A   Clear